GFSMW_prec_precacc_129.txt.gz
Total_Precipitation_Accumulation
1.00 1.21 0.85 0.73 0.83 0.72 0.74 0.52 0.42 0.36 0.40 0.58 0.55 0.74 0.91 1.22 1.39 1.14 0.98 0.97 0.90 0.81 0.73 0.54 0.43 0.35 0.25 0.22 0.22 0.25 0.33 0.40 0.46 0.46 0.26 0.18 0.14 0.16 0.17 0.18 0.17 0.16 0.12
0.88 1.26 1.66 0.85 0.79 1.39 1.59 1.18 0.84 0.79 0.55 0.66 0.65 0.57 0.83 1.05 1.27 1.46 1.27 1.34 1.30 1.13 0.85 0.71 0.69 0.58 0.54 0.45 0.50 0.49 0.48 0.46 0.60 0.57 0.37 0.21 0.16 0.18 0.10 0.09 0.11 0.12 0.14
0.58 1.01 1.79 1.34 1.19 1.62 1.68 1.43 1.33 1.16 1.25 1.15 1.45 1.28 1.32 1.26 1.60 1.82 1.62 1.55 1.48 1.43 1.56 1.86 1.55 1.01 1.02 1.15 1.22 1.28 1.27 1.06 0.82 0.73 0.72 0.43 0.21 0.09 0.08 0.07 0.08 0.09 0.10
0.37 0.57 0.90 1.25 1.40 0.91 0.84 1.33 2.38 2.65 1.70 1.71 2.50 2.94 2.86 2.76 2.54 2.86 2.50 1.92 1.69 1.69 1.86 2.15 2.74 3.21 2.75 1.93 1.63 1.54 1.38 1.43 1.29 1.25 0.98 0.82 0.59 0.39 0.16 0.06 0.06 0.06 0.05
0.33 0.34 0.53 0.73 0.60 0.49 0.54 0.72 1.26 2.07 2.13 2.05 2.51 2.92 2.59 2.11 1.95 2.06 2.69 2.69 2.44 2.02 1.86 1.89 1.96 1.98 2.17 2.63 2.40 1.95 1.84 1.71 1.41 1.16 0.94 0.84 0.80 0.81 0.70 0.37 0.19 0.14 0.09
0.16 0.31 0.26 0.34 0.38 0.42 0.51 0.50 0.69 1.08 1.90 2.06 2.07 2.41 2.64 2.81 2.41 1.99 2.27 2.19 1.82 1.80 1.70 1.52 1.38 1.41 1.46 1.56 1.92 1.95 1.68 1.57 1.61 1.53 1.36 1.14 1.08 0.92 1.03 0.94 0.59 0.51 0.37
0.30 0.36 0.58 0.54 0.58 0.58 0.38 0.40 0.52 0.59 0.94 1.35 1.70 1.85 1.56 1.82 1.91 1.80 1.79 1.96 1.93 1.72 1.65 1.53 1.53 1.41 1.42 1.46 1.55 1.71 1.64 1.46 1.31 1.26 1.29 1.40 1.42 1.39 1.42 1.36 1.00 0.68 0.44
0.55 0.51 0.80 0.98 0.99 0.70 0.62 0.39 0.49 0.33 0.26 0.34 0.63 1.04 1.34 1.71 1.71 1.58 1.52 1.47 1.41 1.55 1.87 1.77 1.74 1.78 1.73 1.71 1.72 1.76 1.81 1.71 1.62 1.63 1.56 1.50 1.46 1.59 1.75 1.86 1.86 1.72 1.12
0.91 0.79 0.84 1.13 1.00 0.74 0.71 0.67 0.52 0.48 0.20 0.12 0.19 0.23 0.32 0.44 0.65 0.78 0.82 0.97 1.23 1.18 1.31 1.42 1.33 1.32 1.32 1.29 1.37 1.38 1.37 1.49 1.53 1.42 1.35 1.29 1.17 1.28 1.40 1.57 1.88 2.40 2.23
1.10 0.94 0.85 0.78 0.62 0.54 0.43 0.43 0.32 0.13 0.09 0.09 0.11 0.04 0.07 0.10 0.14 0.17 0.18 0.23 0.40 0.55 0.68 0.79 0.81 0.88 0.93 1.07 1.17 1.21 1.29 1.39 1.40 1.42 1.46 1.47 1.41 1.38 1.31 1.28 1.40 1.59 1.96
0.82 0.69 0.56 0.34 0.17 0.11 0.02 0.02 0.02 0.04 0.06 0.05 0.03 0.02 0.04 0.06 0.07 0.07 0.05 0.05 0.07 0.08 0.10 0.12 0.15 0.17 0.24 0.42 0.63 0.79 0.97 1.17 1.32 1.59 1.84 1.95 2.06 2.26 2.24 2.29 2.45 2.58 2.69
0.36 0.28 0.14 0.04 0.01 0.00 0.00 0.00 0.05 0.07 0.03 0.02 0.02 0.02 0.03 0.04 0.05 0.05 0.07 0.07 0.07 0.05 0.05 0.06 0.06 0.06 0.10 0.13 0.15 0.17 0.22 0.30 0.40 0.55 0.71 0.79 0.95 1.21 1.42 1.66 1.82 2.16 2.62
0.01 0.02 0.00 0.00 0.01 0.02 0.07 0.12 0.10 0.03 0.04 0.04 0.03 0.03 0.04 0.05 0.06 0.06 0.06 0.06 0.06 0.06 0.05 0.04 0.05 0.06 0.05 0.06 0.08 0.11 0.14 0.20 0.29 0.36 0.41 0.44 0.47 0.54 0.58 0.69 0.87 1.03 1.18
0.00 0.00 0.01 0.00 0.06 0.15 0.25 0.15 0.12 0.10 0.10 0.09 0.07 0.08 0.07 0.08 0.07 0.07 0.06 0.05 0.05 0.05 0.04 0.05 0.05 0.07 0.08 0.10 0.11 0.11 0.11 0.10 0.10 0.13 0.15 0.22 0.31 0.43 0.62 0.86 0.96 0.92 0.80
0.00 0.00 0.01 0.01 0.05 0.19 0.18 0.17 0.20 0.19 0.16 0.15 0.12 0.07 0.06 0.08 0.07 0.06 0.07 0.05 0.05 0.04 0.04 0.08 0.14 0.16 0.17 0.20 0.19 0.19 0.20 0.21 0.25 0.26 0.31 0.37 0.49 0.57 0.53 0.45 0.36 0.37 0.41
0.00 0.00 0.00 0.00 0.02 0.08 0.15 0.15 0.19 0.17 0.10 0.10 0.09 0.07 0.05 0.06 0.08 0.09 0.09 0.09 0.09 0.10 0.10 0.13 0.14 0.17 0.21 0.37 0.31 0.25 0.26 0.29 0.31 0.34 0.37 0.41 0.50 0.40 0.39 0.30 0.26 0.22 0.26
0.00 0.00 0.00 0.00 0.02 0.11 0.19 0.61 0.74 0.37 0.09 0.21 0.16 0.12 0.08 0.09 0.12 0.14 0.16 0.14 0.12 0.15 0.24 0.25 0.20 0.16 0.15 0.29 0.24 0.22 0.20 0.23 0.25 0.25 0.23 0.20 0.19 0.17 0.13 0.19 0.21 0.25 0.23
0.00 0.00 0.00 0.00 0.02 0.13 0.53 0.65 0.86 0.35 0.16 0.29 0.47 0.52 0.47 0.39 0.39 0.41 0.40 0.32 0.30 0.29 0.25 0.27 0.37 0.45 0.54 0.51 0.36 0.28 0.20 0.19 0.17 0.15 0.13 0.09 0.04 0.03 0.03 0.05 0.11 0.08 0.11
0.01 0.01 0.00 0.00 0.01 0.08 0.30 0.32 0.47 0.53 0.56 0.85 0.84 0.80 0.66 0.62 0.87 1.01 0.86 0.75 0.73 0.68 0.77 0.64 0.55 0.66 0.74 0.61 0.47 0.30 0.22 0.18 0.13 0.07 0.02 0.01 0.00 0.03 0.03 0.05 0.02 0.00 0.01
0.00 0.00 0.01 0.02 0.03 0.06 0.22 0.56 0.97 0.79 0.72 0.81 0.97 0.89 0.78 0.64 0.75 0.70 0.76 0.71 0.63 0.68 0.66 0.70 0.57 0.52 0.48 0.35 0.27 0.20 0.12 0.06 0.02 0.00 0.00 0.02 0.01 0.03 0.06 0.05 0.03 0.04 0.01
0.03 0.04 0.05 0.14 0.19 0.29 0.61 0.84 0.99 0.90 0.89 0.92 0.79 0.66 0.55 0.71 0.67 0.69 0.53 0.61 0.53 0.41 0.37 0.33 0.30 0.21 0.12 0.04 0.02 0.01 0.01 0.00 0.01 0.01 0.00 0.00 0.02 0.06 0.07 0.08 0.04 0.06 0.06
0.19 0.07 0.22 0.66 0.79 0.59 0.55 0.45 0.50 0.47 0.26 0.37 0.34 0.37 0.26 0.32 0.42 0.27 0.25 0.23 0.19 0.13 0.07 0.03 0.01 0.00 0.00 0.01 0.01 0.02 0.03 0.03 0.02 0.03 0.02 0.01 0.05 0.07 0.07 0.07 0.06 0.08 0.09
0.07 0.01 0.07 0.12 0.09 0.04 0.01 0.03 0.05 0.05 0.00 0.00 0.00 0.00 0.00 0.00 0.01 0.00 0.00 0.00 0.00 0.00 0.00 0.00 0.00 0.00 0.00 0.01 0.05 0.04 0.05 0.08 0.08 0.04 0.06 0.07 0.07 0.08 0.06 0.06 0.08 0.08 0.06
0.00 0.00 0.00 0.00 0.00 0.00 0.00 0.00 0.00 0.00 0.00 0.00 0.00 0.00 0.00 0.00 0.00 0.00 0.00 0.00 0.00 0.01 0.02 0.02 0.03 0.03 0.04 0.05 0.05 0.08 0.09 0.10 0.09 0.07 0.09 0.12 0.12 0.11 0.09 0.10 0.10 0.08 0.08
0.04 0.07 0.09 0.09 0.05 0.01 0.01 0.01 0.01 0.02 0.03 0.02 0.02 0.01 0.01 0.01 0.01 0.01 0.02 0.01 0.01 0.03 0.02 0.01 0.03 0.05 0.06 0.07 0.17 0.19 0.18 0.19 0.26 0.33 0.22 0.17 0.11 0.10 0.10 0.10 0.11 0.16 0.16
0.00 0.01 0.06 0.12 0.19 0.19 0.17 0.12 0.08 0.07 0.05 0.05 0.03 0.04 0.02 0.02 0.03 0.04 0.04 0.07 0.05 0.06 0.06 0.06 0.05 0.04 0.06 0.11 0.17 0.19 0.21 0.25 0.34 0.40 0.26 0.15 0.12 0.11 0.11 0.14 0.18 0.21 0.25

GFSMW_prec_precacc_135.txt.gz
Total_Precipitation_Accumulation
1.00 1.21 0.85 0.73 0.83 0.72 0.74 0.52 0.42 0.36 0.40 0.58 0.55 0.74 0.91 1.22 1.39 1.14 0.98 0.97 0.90 0.81 0.73 0.54 0.43 0.35 0.25 0.22 0.22 0.25 0.33 0.40 0.46 0.46 0.26 0.18 0.15 0.16 0.17 0.18 0.17 0.16 0.12
0.88 1.26 1.66 0.85 0.79 1.39 1.59 1.18 0.84 0.79 0.55 0.66 0.65 0.57 0.83 1.05 1.27 1.46 1.27 1.34 1.30 1.13 0.85 0.71 0.69 0.58 0.54 0.45 0.50 0.49 0.48 0.46 0.60 0.57 0.37 0.21 0.16 0.18 0.11 0.09 0.11 0.12 0.14
0.58 1.01 1.79 1.34 1.19 1.62 1.68 1.43 1.33 1.16 1.25 1.15 1.45 1.28 1.32 1.26 1.60 1.82 1.62 1.55 1.48 1.43 1.56 1.86 1.55 1.01 1.02 1.15 1.22 1.28 1.27 1.06 0.82 0.73 0.72 0.43 0.22 0.09 0.08 0.07 0.08 0.09 0.10
0.37 0.57 0.90 1.25 1.40 0.91 0.84 1.33 2.38 2.65 1.70 1.71 2.50 2.94 2.86 2.76 2.54 2.86 2.50 1.92 1.69 1.69 1.86 2.15 2.74 3.21 2.75 1.93 1.63 1.54 1.38 1.43 1.29 1.25 0.98 0.83 0.59 0.39 0.16 0.06 0.06 0.06 0.05
0.33 0.34 0.53 0.73 0.60 0.49 0.54 0.72 1.26 2.07 2.13 2.05 2.51 2.92 2.59 2.11 1.95 2.06 2.69 2.69 2.44 2.02 1.86 1.89 1.96 1.98 2.17 2.63 2.40 1.95 1.84 1.71 1.41 1.16 0.94 0.84 0.80 0.81 0.70 0.37 0.19 0.14 0.09
0.16 0.31 0.26 0.34 0.38 0.42 0.51 0.50 0.69 1.08 1.90 2.06 2.07 2.41 2.64 2.81 2.41 1.99 2.27 2.19 1.82 1.80 1.70 1.52 1.38 1.41 1.46 1.56 1.92 1.95 1.68 1.57 1.61 1.53 1.36 1.14 1.08 0.92 1.03 0.94 0.59 0.51 0.37
0.30 0.36 0.58 0.54 0.58 0.58 0.38 0.40 0.52 0.59 0.94 1.35 1.70 1.85 1.56 1.82 1.91 1.80 1.79 1.96 1.93 1.72 1.65 1.53 1.53 1.41 1.42 1.46 1.55 1.71 1.64 1.46 1.31 1.26 1.29 1.40 1.42 1.39 1.42 1.36 1.00 0.68 0.44
0.55 0.51 0.80 0.98 0.99 0.70 0.62 0.39 0.49 0.33 0.26 0.34 0.63 1.04 1.34 1.71 1.71 1.58 1.52 1.47 1.41 1.55 1.87 1.77 1.74 1.78 1.73 1.71 1.72 1.76 1.81 1.71 1.62 1.63 1.56 1.50 1.46 1.59 1.75 1.86 1.86 1.72 1.12
0.91 0.79 0.84 1.13 1.00 0.74 0.71 0.67 0.52 0.48 0.20 0.12 0.19 0.23 0.32 0.44 0.65 0.78 0.82 0.97 1.23 1.18 1.31 1.42 1.33 1.32 1.32 1.29 1.37 1.38 1.37 1.49 1.53 1.42 1.35 1.29 1.17 1.28 1.40 1.57 1.88 2.40 2.23
1.10 0.94 0.85 0.78 0.62 0.54 0.43 0.43 0.32 0.13 0.09 0.09 0.11 0.04 0.07 0.10 0.14 0.17 0.18 0.23 0.40 0.55 0.68 0.79 0.81 0.88 0.93 1.07 1.17 1.21 1.29 1.39 1.40 1.42 1.46 1.47 1.41 1.38 1.31 1.28 1.40 1.59 1.96
0.82 0.69 0.56 0.34 0.17 0.11 0.02 0.02 0.02 0.04 0.06 0.05 0.03 0.02 0.04 0.06 0.07 0.07 0.05 0.05 0.07 0.08 0.10 0.12 0.15 0.17 0.24 0.42 0.63 0.79 0.97 1.17 1.32 1.59 1.84 1.95 2.06 2.26 2.24 2.29 2.45 2.58 2.69
0.36 0.28 0.14 0.04 0.01 0.00 0.00 0.00 0.05 0.07 0.03 0.02 0.02 0.02 0.03 0.04 0.05 0.05 0.07 0.07 0.07 0.05 0.05 0.06 0.06 0.06 0.10 0.13 0.15 0.17 0.22 0.30 0.40 0.55 0.71 0.79 0.95 1.21 1.42 1.66 1.82 2.16 2.62
0.01 0.02 0.00 0.00 0.01 0.02 0.07 0.12 0.10 0.03 0.04 0.04 0.03 0.03 0.04 0.05 0.06 0.06 0.06 0.06 0.06 0.06 0.05 0.04 0.05 0.06 0.05 0.06 0.08 0.11 0.14 0.20 0.29 0.36 0.41 0.44 0.47 0.54 0.58 0.69 0.87 1.03 1.18
0.00 0.00 0.01 0.00 0.06 0.15 0.25 0.15 0.12 0.10 0.10 0.09 0.07 0.08 0.07 0.08 0.07 0.07 0.06 0.05 0.05 0.05 0.04 0.05 0.05 0.07 0.08 0.10 0.11 0.11 0.11 0.10 0.10 0.13 0.15 0.22 0.31 0.43 0.62 0.86 0.96 0.92 0.80
0.00 0.00 0.01 0.01 0.05 0.19 0.18 0.17 0.20 0.19 0.16 0.15 0.12 0.07 0.06 0.08 0.07 0.06 0.07 0.05 0.05 0.04 0.04 0.08 0.14 0.16 0.17 0.20 0.19 0.19 0.20 0.21 0.25 0.26 0.31 0.37 0.49 0.57 0.53 0.45 0.36 0.37 0.41
0.00 0.00 0.00 0.00 0.02 0.08 0.15 0.15 0.19 0.17 0.10 0.10 0.09 0.07 0.05 0.06 0.08 0.09 0.09 0.09 0.09 0.10 0.10 0.13 0.14 0.17 0.21 0.37 0.31 0.25 0.26 0.29 0.31 0.34 0.37 0.41 0.50 0.40 0.39 0.30 0.26 0.22 0.26
0.00 0.00 0.00 0.00 0.02 0.11 0.19 0.61 0.74 0.37 0.09 0.21 0.16 0.12 0.08 0.09 0.12 0.14 0.16 0.14 0.12 0.15 0.24 0.25 0.20 0.16 0.15 0.29 0.24 0.22 0.20 0.23 0.25 0.25 0.23 0.20 0.19 0.17 0.13 0.19 0.21 0.25 0.23
0.00 0.00 0.00 0.00 0.02 0.13 0.53 0.65 0.86 0.35 0.16 0.29 0.47 0.52 0.47 0.39 0.39 0.41 0.40 0.32 0.30 0.29 0.25 0.27 0.37 0.45 0.54 0.51 0.36 0.28 0.20 0.19 0.17 0.15 0.13 0.09 0.04 0.03 0.03 0.05 0.11 0.08 0.11
0.01 0.01 0.00 0.00 0.01 0.08 0.30 0.32 0.47 0.53 0.56 0.85 0.84 0.80 0.66 0.62 0.87 1.01 0.86 0.75 0.73 0.68 0.77 0.64 0.55 0.66 0.74 0.61 0.47 0.30 0.22 0.18 0.13 0.07 0.02 0.01 0.00 0.03 0.03 0.05 0.02 0.00 0.01
0.00 0.00 0.01 0.02 0.03 0.06 0.22 0.56 0.97 0.79 0.72 0.81 0.97 0.89 0.78 0.64 0.75 0.70 0.76 0.71 0.63 0.68 0.66 0.70 0.57 0.52 0.48 0.35 0.27 0.20 0.13 0.07 0.03 0.01 0.00 0.02 0.01 0.03 0.06 0.05 0.03 0.04 0.01
0.03 0.04 0.05 0.14 0.19 0.29 0.61 0.84 0.99 0.90 0.89 0.92 0.79 0.66 0.55 0.71 0.67 0.69 0.53 0.61 0.53 0.41 0.37 0.33 0.30 0.21 0.12 0.05 0.03 0.04 0.04 0.03 0.03 0.01 0.00 0.00 0.02 0.06 0.07 0.08 0.04 0.06 0.07
0.19 0.07 0.22 0.66 0.79 0.59 0.55 0.45 0.50 0.47 0.26 0.37 0.34 0.37 0.26 0.32 0.42 0.27 0.25 0.23 0.19 0.13 0.07 0.03 0.02 0.01 0.01 0.03 0.05 0.05 0.05 0.04 0.02 0.03 0.02 0.01 0.05 0.07 0.07 0.08 0.06 0.09 0.10
0.07 0.01 0.07 0.12 0.09 0.04 0.01 0.03 0.05 0.05 0.00 0.00 0.00 0.00 0.00 0.00 0.01 0.00 0.00 0.00 0.00 0.00 0.00 0.00 0.00 0.00 0.00 0.01 0.06 0.05 0.05 0.08 0.08 0.04 0.06 0.07 0.07 0.08 0.06 0.06 0.08 0.08 0.06
0.00 0.00 0.00 0.00 0.00 0.00 0.00 0.00 0.00 0.00 0.00 0.00 0.00 0.00 0.00 0.00 0.00 0.00 0.00 0.00 0.00 0.01 0.02 0.02 0.03 0.03 0.04 0.05 0.05 0.08 0.09 0.10 0.09 0.07 0.09 0.12 0.12 0.11 0.09 0.10 0.10 0.08 0.08
0.04 0.07 0.09 0.09 0.05 0.01 0.01 0.01 0.01 0.02 0.03 0.02 0.02 0.01 0.01 0.01 0.01 0.01 0.02 0.01 0.01 0.03 0.02 0.01 0.03 0.05 0.06 0.07 0.18 0.19 0.18 0.19 0.26 0.33 0.22 0.17 0.11 0.10 0.11 0.10 0.11 0.16 0.16
0.00 0.01 0.06 0.12 0.19 0.19 0.17 0.12 0.08 0.07 0.05 0.05 0.03 0.04 0.02 0.02 0.03 0.04 0.04 0.07 0.05 0.06 0.06 0.06 0.05 0.04 0.07 0.11 0.17 0.19 0.21 0.25 0.34 0.40 0.26 0.15 0.12 0.12 0.12 0.14 0.18 0.21 0.25

GFSMW_prec_precacc_138.txt.gz
Total_Precipitation_Accumulation
1.00 1.21 0.85 0.73 0.83 0.72 0.74 0.52 0.42 0.36 0.40 0.58 0.55 0.74 0.91 1.22 1.39 1.14 0.98 0.97 0.90 0.81 0.73 0.54 0.43 0.35 0.25 0.22 0.22 0.25 0.33 0.40 0.46 0.46 0.26 0.18 0.15 0.16 0.17 0.18 0.17 0.16 0.12
0.88 1.26 1.66 0.85 0.79 1.39 1.59 1.18 0.84 0.79 0.55 0.66 0.65 0.57 0.83 1.05 1.27 1.46 1.27 1.34 1.30 1.13 0.85 0.71 0.69 0.58 0.54 0.45 0.50 0.49 0.48 0.46 0.60 0.57 0.37 0.21 0.16 0.18 0.11 0.09 0.11 0.12 0.14
0.58 1.01 1.79 1.34 1.19 1.62 1.68 1.43 1.33 1.16 1.25 1.15 1.45 1.28 1.32 1.26 1.60 1.82 1.62 1.55 1.48 1.43 1.56 1.86 1.55 1.01 1.02 1.15 1.22 1.28 1.27 1.06 0.82 0.73 0.72 0.43 0.22 0.09 0.08 0.07 0.08 0.09 0.10
0.37 0.57 0.90 1.25 1.40 0.91 0.84 1.33 2.38 2.65 1.70 1.71 2.50 2.94 2.86 2.76 2.54 2.86 2.50 1.92 1.69 1.69 1.86 2.15 2.74 3.21 2.75 1.93 1.63 1.54 1.38 1.43 1.29 1.25 0.98 0.83 0.59 0.39 0.16 0.06 0.06 0.06 0.05
0.33 0.34 0.53 0.73 0.60 0.49 0.54 0.72 1.26 2.07 2.13 2.05 2.51 2.92 2.59 2.11 1.95 2.06 2.69 2.69 2.44 2.02 1.86 1.89 1.96 1.98 2.17 2.63 2.40 1.95 1.84 1.71 1.41 1.16 0.94 0.84 0.80 0.81 0.70 0.37 0.19 0.14 0.09
0.16 0.31 0.26 0.34 0.38 0.42 0.51 0.50 0.69 1.08 1.90 2.06 2.07 2.41 2.64 2.81 2.41 1.99 2.27 2.19 1.82 1.80 1.70 1.52 1.38 1.41 1.46 1.56 1.92 1.95 1.68 1.57 1.61 1.53 1.36 1.14 1.08 0.92 1.03 0.94 0.59 0.51 0.37
0.30 0.36 0.58 0.54 0.58 0.58 0.38 0.40 0.52 0.59 0.94 1.35 1.70 1.85 1.56 1.82 1.91 1.80 1.79 1.96 1.93 1.72 1.65 1.53 1.53 1.41 1.42 1.46 1.55 1.71 1.64 1.46 1.31 1.26 1.29 1.40 1.42 1.39 1.42 1.36 1.00 0.68 0.44
0.55 0.51 0.80 0.98 0.99 0.70 0.62 0.39 0.49 0.33 0.26 0.34 0.63 1.04 1.34 1.71 1.71 1.58 1.52 1.47 1.41 1.55 1.87 1.77 1.74 1.78 1.73 1.71 1.72 1.76 1.81 1.71 1.62 1.63 1.56 1.50 1.46 1.59 1.75 1.86 1.86 1.72 1.12
0.91 0.79 0.84 1.13 1.00 0.74 0.71 0.67 0.52 0.48 0.20 0.12 0.19 0.23 0.32 0.44 0.65 0.78 0.82 0.97 1.23 1.18 1.31 1.42 1.33 1.32 1.32 1.29 1.37 1.38 1.37 1.49 1.53 1.42 1.35 1.29 1.17 1.28 1.40 1.57 1.88 2.40 2.23
1.10 0.94 0.85 0.78 0.62 0.54 0.43 0.43 0.32 0.13 0.09 0.09 0.11 0.04 0.07 0.10 0.14 0.17 0.18 0.23 0.40 0.55 0.68 0.79 0.81 0.88 0.93 1.07 1.17 1.21 1.29 1.39 1.40 1.42 1.46 1.47 1.41 1.38 1.31 1.28 1.40 1.59 1.96
0.82 0.69 0.56 0.34 0.17 0.11 0.02 0.02 0.02 0.04 0.06 0.05 0.03 0.02 0.04 0.06 0.07 0.07 0.05 0.05 0.07 0.08 0.10 0.12 0.15 0.17 0.24 0.42 0.63 0.79 0.97 1.17 1.32 1.59 1.84 1.95 2.06 2.26 2.24 2.29 2.45 2.58 2.69
0.36 0.28 0.14 0.04 0.01 0.00 0.00 0.00 0.05 0.07 0.03 0.02 0.02 0.02 0.03 0.04 0.05 0.05 0.07 0.07 0.07 0.05 0.05 0.06 0.06 0.06 0.10 0.13 0.15 0.17 0.22 0.30 0.40 0.55 0.71 0.79 0.95 1.21 1.42 1.66 1.82 2.16 2.62
0.01 0.02 0.00 0.00 0.01 0.02 0.07 0.12 0.10 0.03 0.04 0.04 0.03 0.03 0.04 0.05 0.06 0.06 0.06 0.06 0.06 0.06 0.05 0.04 0.05 0.06 0.05 0.06 0.08 0.11 0.14 0.20 0.29 0.36 0.41 0.44 0.47 0.54 0.58 0.69 0.87 1.03 1.18
0.00 0.00 0.01 0.00 0.06 0.15 0.25 0.15 0.12 0.10 0.10 0.09 0.07 0.08 0.07 0.08 0.07 0.07 0.06 0.05 0.05 0.05 0.04 0.05 0.05 0.07 0.08 0.10 0.11 0.11 0.11 0.10 0.10 0.13 0.15 0.22 0.31 0.43 0.62 0.86 0.96 0.92 0.80
0.00 0.00 0.01 0.01 0.05 0.19 0.18 0.17 0.20 0.19 0.16 0.15 0.12 0.07 0.06 0.08 0.07 0.06 0.07 0.05 0.05 0.04 0.04 0.08 0.14 0.16 0.17 0.20 0.19 0.19 0.20 0.21 0.25 0.26 0.31 0.37 0.49 0.57 0.53 0.45 0.36 0.37 0.41
0.00 0.00 0.00 0.00 0.02 0.08 0.15 0.15 0.19 0.17 0.10 0.10 0.09 0.07 0.05 0.06 0.08 0.09 0.09 0.09 0.09 0.10 0.10 0.13 0.14 0.17 0.21 0.37 0.31 0.25 0.26 0.29 0.31 0.34 0.37 0.41 0.50 0.40 0.39 0.30 0.26 0.22 0.26
0.00 0.00 0.00 0.00 0.02 0.11 0.19 0.61 0.74 0.37 0.09 0.21 0.16 0.12 0.08 0.09 0.12 0.14 0.16 0.14 0.12 0.15 0.24 0.25 0.20 0.16 0.15 0.29 0.24 0.22 0.20 0.23 0.25 0.25 0.23 0.20 0.19 0.17 0.13 0.19 0.21 0.25 0.23
0.00 0.00 0.00 0.00 0.02 0.13 0.53 0.65 0.86 0.35 0.16 0.29 0.47 0.52 0.47 0.39 0.39 0.41 0.40 0.32 0.30 0.29 0.25 0.27 0.37 0.45 0.54 0.51 0.36 0.28 0.20 0.19 0.17 0.15 0.13 0.09 0.04 0.03 0.03 0.05 0.11 0.08 0.11
0.01 0.01 0.00 0.00 0.01 0.08 0.30 0.32 0.47 0.53 0.56 0.85 0.84 0.80 0.66 0.62 0.87 1.01 0.86 0.75 0.73 0.68 0.77 0.64 0.55 0.66 0.74 0.61 0.47 0.30 0.22 0.18 0.13 0.07 0.02 0.02 0.01 0.03 0.03 0.05 0.02 0.00 0.01
0.00 0.00 0.01 0.02 0.03 0.06 0.22 0.56 0.97 0.79 0.72 0.81 0.97 0.89 0.78 0.64 0.75 0.70 0.76 0.71 0.63 0.68 0.66 0.70 0.57 0.52 0.48 0.35 0.27 0.20 0.13 0.07 0.03 0.02 0.02 0.03 0.02 0.03 0.06 0.05 0.03 0.04 0.01
0.03 0.04 0.05 0.14 0.19 0.29 0.61 0.84 0.99 0.90 0.89 0.92 0.79 0.66 0.55 0.71 0.67 0.69 0.53 0.61 0.53 0.41 0.37 0.33 0.30 0.21 0.12 0.05 0.03 0.04 0.04 0.03 0.04 0.02 0.01 0.01 0.03 0.06 0.07 0.08 0.04 0.06 0.07
0.19 0.07 0.22 0.66 0.79 0.59 0.55 0.45 0.50 0.47 0.26 0.37 0.34 0.37 0.26 0.32 0.42 0.27 0.25 0.23 0.19 0.13 0.07 0.03 0.02 0.01 0.01 0.03 0.05 0.05 0.05 0.04 0.03 0.03 0.02 0.02 0.05 0.07 0.07 0.08 0.06 0.09 0.10
0.07 0.01 0.07 0.12 0.09 0.04 0.01 0.03 0.05 0.05 0.00 0.00 0.00 0.00 0.00 0.00 0.01 0.00 0.00 0.00 0.00 0.00 0.00 0.00 0.00 0.00 0.00 0.01 0.06 0.05 0.05 0.08 0.08 0.04 0.06 0.07 0.07 0.08 0.06 0.06 0.08 0.08 0.06
0.00 0.00 0.00 0.00 0.00 0.00 0.00 0.00 0.00 0.00 0.00 0.00 0.00 0.00 0.00 0.00 0.00 0.00 0.00 0.00 0.00 0.01 0.02 0.02 0.03 0.03 0.04 0.05 0.05 0.08 0.09 0.10 0.09 0.07 0.09 0.12 0.12 0.11 0.09 0.10 0.10 0.08 0.08
0.04 0.07 0.09 0.09 0.05 0.01 0.01 0.01 0.01 0.02 0.03 0.02 0.02 0.01 0.01 0.01 0.01 0.01 0.02 0.01 0.01 0.03 0.02 0.01 0.03 0.05 0.06 0.07 0.18 0.19 0.18 0.19 0.26 0.33 0.22 0.17 0.11 0.10 0.11 0.10 0.11 0.16 0.16
0.00 0.01 0.06 0.12 0.19 0.19 0.17 0.12 0.08 0.07 0.05 0.05 0.03 0.04 0.02 0.02 0.03 0.04 0.04 0.07 0.05 0.06 0.06 0.06 0.05 0.04 0.07 0.11 0.17 0.19 0.21 0.25 0.34 0.40 0.26 0.15 0.12 0.12 0.12 0.15 0.18 0.22 0.25

GFSMW_prec_precacc_144.txt.gz
Total_Precipitation_Accumulation
1.00 1.21 0.85 0.73 0.83 0.72 0.74 0.52 0.42 0.36 0.40 0.58 0.55 0.74 0.91 1.22 1.39 1.14 0.98 0.97 0.90 0.81 0.73 0.54 0.43 0.35 0.25 0.22 0.22 0.25 0.33 0.40 0.46 0.46 0.26 0.18 0.15 0.16 0.17 0.18 0.17 0.16 0.12
0.88 1.26 1.66 0.85 0.79 1.39 1.59 1.18 0.84 0.79 0.55 0.66 0.65 0.57 0.83 1.05 1.27 1.46 1.27 1.34 1.30 1.13 0.85 0.71 0.69 0.58 0.54 0.45 0.50 0.49 0.48 0.46 0.60 0.57 0.37 0.21 0.16 0.18 0.11 0.09 0.11 0.12 0.14
0.58 1.01 1.79 1.34 1.19 1.62 1.68 1.43 1.33 1.16 1.25 1.15 1.45 1.28 1.32 1.26 1.60 1.82 1.62 1.55 1.48 1.43 1.56 1.86 1.55 1.01 1.02 1.15 1.22 1.28 1.27 1.06 0.82 0.73 0.72 0.43 0.22 0.09 0.08 0.07 0.08 0.09 0.10
0.37 0.57 0.90 1.25 1.40 0.91 0.84 1.33 2.38 2.65 1.70 1.71 2.50 2.94 2.86 2.76 2.54 2.86 2.50 1.92 1.69 1.69 1.86 2.15 2.74 3.21 2.75 1.93 1.63 1.54 1.38 1.43 1.29 1.25 0.98 0.83 0.59 0.39 0.16 0.06 0.06 0.06 0.05
0.33 0.34 0.53 0.73 0.60 0.49 0.54 0.72 1.26 2.07 2.13 2.05 2.51 2.92 2.59 2.11 1.95 2.06 2.69 2.69 2.44 2.02 1.86 1.89 1.96 1.98 2.17 2.63 2.40 1.95 1.84 1.71 1.41 1.16 0.94 0.84 0.80 0.81 0.70 0.37 0.19 0.14 0.09
0.16 0.31 0.26 0.34 0.38 0.42 0.51 0.50 0.69 1.08 1.90 2.06 2.07 2.41 2.64 2.81 2.41 1.99 2.27 2.19 1.82 1.80 1.70 1.52 1.38 1.41 1.46 1.56 1.92 1.95 1.68 1.57 1.61 1.53 1.36 1.14 1.08 0.92 1.03 0.94 0.59 0.51 0.37
0.30 0.36 0.58 0.54 0.58 0.58 0.38 0.40 0.52 0.59 0.94 1.35 1.70 1.85 1.56 1.82 1.91 1.80 1.79 1.96 1.93 1.72 1.65 1.53 1.53 1.41 1.42 1.46 1.55 1.71 1.64 1.46 1.31 1.26 1.29 1.40 1.42 1.39 1.42 1.36 1.00 0.68 0.44
0.55 0.51 0.80 0.98 0.99 0.70 0.62 0.39 0.49 0.33 0.26 0.34 0.63 1.04 1.34 1.71 1.71 1.58 1.52 1.47 1.41 1.55 1.87 1.77 1.74 1.78 1.73 1.71 1.72 1.76 1.81 1.71 1.62 1.63 1.56 1.50 1.46 1.59 1.75 1.86 1.86 1.72 1.12
0.91 0.79 0.84 1.13 1.00 0.74 0.71 0.67 0.52 0.48 0.20 0.12 0.19 0.23 0.32 0.44 0.65 0.78 0.82 0.97 1.23 1.18 1.31 1.42 1.33 1.32 1.32 1.29 1.37 1.38 1.37 1.49 1.53 1.42 1.35 1.29 1.17 1.28 1.40 1.57 1.88 2.40 2.23
1.10 0.94 0.85 0.78 0.62 0.54 0.43 0.43 0.32 0.13 0.09 0.09 0.11 0.04 0.07 0.10 0.14 0.17 0.18 0.23 0.40 0.55 0.68 0.79 0.81 0.88 0.93 1.07 1.17 1.21 1.29 1.39 1.40 1.42 1.46 1.47 1.41 1.38 1.31 1.28 1.40 1.59 1.96
0.82 0.69 0.56 0.34 0.17 0.11 0.02 0.02 0.02 0.04 0.06 0.05 0.03 0.02 0.04 0.06 0.07 0.07 0.05 0.05 0.07 0.08 0.10 0.12 0.15 0.17 0.24 0.42 0.63 0.79 0.97 1.17 1.32 1.59 1.84 1.95 2.06 2.26 2.24 2.29 2.45 2.58 2.69
0.36 0.28 0.14 0.04 0.01 0.00 0.00 0.00 0.05 0.07 0.03 0.02 0.02 0.02 0.03 0.04 0.05 0.05 0.07 0.07 0.07 0.05 0.05 0.06 0.06 0.06 0.10 0.13 0.15 0.17 0.22 0.30 0.40 0.55 0.71 0.79 0.95 1.21 1.42 1.66 1.82 2.16 2.62
0.01 0.02 0.00 0.00 0.01 0.02 0.07 0.12 0.10 0.03 0.04 0.04 0.03 0.03 0.04 0.05 0.06 0.06 0.06 0.06 0.06 0.06 0.05 0.04 0.05 0.06 0.05 0.06 0.08 0.11 0.14 0.20 0.29 0.36 0.41 0.44 0.47 0.54 0.58 0.69 0.87 1.03 1.18
0.00 0.00 0.01 0.00 0.06 0.15 0.25 0.15 0.12 0.10 0.10 0.09 0.07 0.08 0.07 0.08 0.07 0.07 0.06 0.05 0.05 0.05 0.04 0.05 0.05 0.07 0.08 0.10 0.11 0.11 0.11 0.10 0.10 0.13 0.15 0.22 0.31 0.43 0.62 0.86 0.96 0.92 0.80
0.00 0.00 0.01 0.01 0.05 0.19 0.18 0.17 0.20 0.19 0.16 0.15 0.12 0.07 0.06 0.08 0.07 0.06 0.07 0.05 0.05 0.04 0.04 0.08 0.14 0.16 0.17 0.20 0.19 0.19 0.20 0.21 0.25 0.26 0.31 0.37 0.49 0.57 0.53 0.45 0.36 0.37 0.41
0.00 0.00 0.00 0.00 0.02 0.08 0.15 0.15 0.19 0.17 0.10 0.10 0.09 0.07 0.05 0.06 0.08 0.09 0.09 0.09 0.09 0.10 0.10 0.13 0.14 0.17 0.21 0.37 0.31 0.25 0.26 0.29 0.31 0.34 0.37 0.41 0.50 0.40 0.39 0.30 0.26 0.22 0.26
0.00 0.00 0.00 0.00 0.02 0.11 0.19 0.61 0.74 0.37 0.09 0.21 0.16 0.12 0.08 0.09 0.12 0.14 0.16 0.14 0.12 0.15 0.24 0.25 0.20 0.16 0.15 0.29 0.24 0.22 0.20 0.23 0.25 0.25 0.23 0.20 0.19 0.17 0.13 0.19 0.21 0.25 0.23
0.00 0.00 0.00 0.00 0.02 0.13 0.53 0.65 0.86 0.35 0.16 0.29 0.47 0.52 0.47 0.39 0.39 0.41 0.40 0.32 0.30 0.29 0.25 0.27 0.37 0.45 0.54 0.51 0.36 0.28 0.20 0.19 0.17 0.15 0.13 0.09 0.04 0.03 0.03 0.05 0.11 0.08 0.11
0.01 0.01 0.00 0.00 0.01 0.08 0.30 0.32 0.47 0.53 0.56 0.85 0.84 0.80 0.66 0.62 0.87 1.01 0.86 0.75 0.73 0.68 0.77 0.64 0.55 0.66 0.74 0.61 0.47 0.30 0.22 0.18 0.13 0.07 0.02 0.02 0.01 0.03 0.04 0.05 0.02 0.00 0.01
0.00 0.00 0.01 0.02 0.03 0.06 0.22 0.56 0.97 0.79 0.72 0.81 0.97 0.89 0.78 0.64 0.75 0.70 0.76 0.71 0.63 0.68 0.66 0.70 0.57 0.52 0.48 0.35 0.27 0.20 0.13 0.07 0.03 0.02 0.02 0.03 0.02 0.03 0.07 0.06 0.03 0.04 0.01
0.03 0.04 0.05 0.14 0.19 0.29 0.61 0.84 0.99 0.90 0.89 0.92 0.79 0.66 0.55 0.71 0.67 0.69 0.53 0.61 0.53 0.41 0.37 0.33 0.30 0.21 0.12 0.05 0.03 0.04 0.04 0.03 0.04 0.02 0.01 0.01 0.03 0.07 0.08 0.09 0.05 0.07 0.07
0.19 0.07 0.22 0.66 0.79 0.59 0.55 0.45 0.50 0.47 0.26 0.37 0.34 0.37 0.26 0.32 0.42 0.27 0.25 0.23 0.19 0.13 0.07 0.03 0.02 0.01 0.01 0.03 0.05 0.05 0.05 0.04 0.03 0.03 0.02 0.02 0.06 0.08 0.07 0.08 0.07 0.09 0.11
0.07 0.01 0.07 0.12 0.09 0.04 0.01 0.03 0.05 0.05 0.00 0.00 0.00 0.00 0.00 0.00 0.01 0.00 0.00 0.00 0.00 0.00 0.00 0.00 0.00 0.00 0.00 0.01 0.06 0.05 0.05 0.08 0.08 0.04 0.06 0.07 0.07 0.08 0.06 0.06 0.08 0.08 0.06
0.00 0.00 0.00 0.00 0.00 0.00 0.00 0.00 0.00 0.00 0.00 0.00 0.00 0.00 0.00 0.00 0.00 0.00 0.00 0.00 0.00 0.01 0.02 0.02 0.03 0.03 0.04 0.05 0.05 0.08 0.09 0.10 0.09 0.07 0.09 0.12 0.12 0.11 0.09 0.10 0.10 0.08 0.08
0.04 0.07 0.09 0.09 0.05 0.01 0.01 0.01 0.01 0.02 0.03 0.02 0.02 0.01 0.01 0.01 0.01 0.01 0.02 0.01 0.01 0.03 0.02 0.01 0.03 0.05 0.06 0.07 0.18 0.19 0.18 0.19 0.26 0.33 0.22 0.17 0.11 0.10 0.11 0.10 0.11 0.16 0.17
0.00 0.01 0.06 0.12 0.19 0.19 0.17 0.12 0.08 0.07 0.05 0.05 0.03 0.04 0.02 0.02 0.03 0.04 0.04 0.07 0.05 0.06 0.06 0.06 0.05 0.04 0.07 0.11 0.17 0.19 0.21 0.25 0.34 0.40 0.26 0.15 0.12 0.12 0.12 0.15 0.18 0.22 0.26

GFSMW_prec_precacc_150.txt.gz
Total_Precipitation_Accumulation
1.00 1.21 0.85 0.73 0.83 0.72 0.74 0.52 0.42 0.36 0.40 0.58 0.55 0.74 0.91 1.22 1.39 1.14 0.98 0.97 0.90 0.81 0.73 0.54 0.43 0.35 0.25 0.22 0.22 0.25 0.33 0.40 0.46 0.46 0.26 0.18 0.15 0.16 0.17 0.18 0.17 0.16 0.12
0.88 1.26 1.66 0.85 0.79 1.39 1.59 1.18 0.84 0.79 0.55 0.66 0.65 0.57 0.83 1.05 1.27 1.46 1.27 1.34 1.30 1.13 0.85 0.71 0.69 0.58 0.54 0.45 0.50 0.49 0.48 0.46 0.60 0.57 0.37 0.21 0.16 0.18 0.11 0.09 0.11 0.12 0.14
0.58 1.01 1.79 1.34 1.19 1.62 1.68 1.43 1.33 1.16 1.25 1.15 1.45 1.28 1.32 1.26 1.60 1.82 1.62 1.55 1.48 1.43 1.56 1.86 1.55 1.01 1.02 1.15 1.22 1.28 1.27 1.06 0.82 0.73 0.72 0.43 0.22 0.09 0.08 0.07 0.08 0.09 0.10
0.37 0.57 0.90 1.25 1.40 0.91 0.84 1.33 2.38 2.65 1.70 1.71 2.50 2.94 2.86 2.76 2.54 2.86 2.50 1.92 1.69 1.69 1.86 2.15 2.74 3.21 2.75 1.93 1.63 1.54 1.38 1.43 1.29 1.25 0.98 0.83 0.59 0.39 0.16 0.06 0.06 0.06 0.05
0.33 0.34 0.53 0.73 0.60 0.49 0.54 0.72 1.26 2.07 2.13 2.05 2.51 2.92 2.59 2.11 1.95 2.06 2.69 2.69 2.44 2.02 1.86 1.89 1.96 1.98 2.17 2.63 2.40 1.95 1.84 1.71 1.41 1.16 0.94 0.84 0.80 0.81 0.70 0.37 0.19 0.14 0.09
0.16 0.31 0.26 0.34 0.38 0.42 0.51 0.50 0.69 1.08 1.90 2.06 2.07 2.41 2.64 2.81 2.41 1.99 2.27 2.19 1.82 1.80 1.70 1.52 1.38 1.41 1.46 1.56 1.92 1.95 1.68 1.57 1.61 1.53 1.36 1.14 1.08 0.92 1.03 0.94 0.59 0.51 0.37
0.30 0.36 0.58 0.54 0.58 0.58 0.38 0.40 0.52 0.59 0.94 1.35 1.70 1.85 1.56 1.82 1.91 1.80 1.79 1.96 1.93 1.72 1.65 1.53 1.53 1.41 1.42 1.46 1.55 1.71 1.64 1.46 1.31 1.26 1.29 1.40 1.42 1.39 1.42 1.36 1.00 0.68 0.44
0.55 0.51 0.80 0.98 0.99 0.70 0.62 0.39 0.49 0.33 0.26 0.34 0.63 1.04 1.34 1.71 1.71 1.58 1.52 1.47 1.41 1.55 1.87 1.77 1.74 1.78 1.73 1.71 1.72 1.76 1.81 1.71 1.62 1.63 1.56 1.50 1.46 1.59 1.75 1.86 1.86 1.72 1.12
0.91 0.79 0.84 1.13 1.00 0.74 0.71 0.67 0.52 0.48 0.20 0.12 0.19 0.23 0.32 0.44 0.65 0.78 0.82 0.97 1.23 1.18 1.31 1.42 1.33 1.32 1.32 1.29 1.37 1.38 1.37 1.49 1.53 1.42 1.35 1.29 1.17 1.28 1.40 1.57 1.88 2.40 2.23
1.10 0.94 0.85 0.78 0.62 0.54 0.43 0.43 0.32 0.13 0.09 0.09 0.11 0.04 0.07 0.10 0.14 0.17 0.18 0.23 0.40 0.55 0.68 0.79 0.81 0.88 0.93 1.07 1.17 1.21 1.29 1.39 1.40 1.42 1.46 1.47 1.41 1.38 1.31 1.28 1.40 1.59 1.96
0.82 0.69 0.56 0.34 0.17 0.11 0.02 0.02 0.02 0.04 0.06 0.05 0.03 0.02 0.04 0.06 0.07 0.07 0.05 0.05 0.07 0.08 0.10 0.12 0.15 0.17 0.24 0.42 0.63 0.79 0.97 1.17 1.32 1.59 1.84 1.95 2.06 2.26 2.24 2.29 2.45 2.58 2.69
0.36 0.28 0.14 0.04 0.01 0.00 0.00 0.00 0.05 0.07 0.03 0.02 0.02 0.02 0.03 0.04 0.05 0.05 0.07 0.07 0.07 0.05 0.05 0.06 0.06 0.06 0.10 0.13 0.15 0.17 0.22 0.30 0.40 0.55 0.71 0.79 0.95 1.21 1.42 1.66 1.82 2.16 2.62
0.01 0.02 0.00 0.00 0.01 0.02 0.07 0.12 0.10 0.03 0.04 0.04 0.03 0.03 0.04 0.05 0.06 0.06 0.06 0.06 0.06 0.06 0.05 0.04 0.05 0.06 0.05 0.06 0.08 0.11 0.14 0.20 0.29 0.36 0.41 0.44 0.47 0.54 0.58 0.69 0.87 1.03 1.18
0.00 0.00 0.01 0.00 0.06 0.15 0.25 0.15 0.12 0.10 0.10 0.09 0.07 0.08 0.07 0.08 0.07 0.07 0.06 0.05 0.05 0.05 0.04 0.05 0.05 0.07 0.08 0.10 0.11 0.11 0.11 0.10 0.10 0.13 0.15 0.22 0.31 0.43 0.62 0.86 0.96 0.92 0.80
0.00 0.00 0.01 0.01 0.05 0.19 0.18 0.17 0.20 0.19 0.16 0.15 0.12 0.07 0.06 0.08 0.07 0.06 0.07 0.05 0.05 0.04 0.04 0.08 0.14 0.16 0.17 0.20 0.19 0.19 0.20 0.21 0.25 0.26 0.31 0.37 0.49 0.57 0.53 0.45 0.36 0.37 0.41
0.00 0.00 0.00 0.00 0.02 0.08 0.15 0.15 0.19 0.17 0.10 0.10 0.09 0.07 0.05 0.06 0.08 0.09 0.09 0.09 0.09 0.10 0.10 0.13 0.14 0.17 0.21 0.37 0.31 0.25 0.26 0.29 0.31 0.34 0.37 0.41 0.50 0.40 0.39 0.30 0.26 0.22 0.26
0.00 0.00 0.00 0.00 0.02 0.11 0.19 0.61 0.74 0.37 0.09 0.21 0.16 0.12 0.08 0.09 0.12 0.14 0.16 0.14 0.12 0.15 0.24 0.25 0.20 0.16 0.15 0.29 0.24 0.22 0.20 0.23 0.25 0.25 0.23 0.20 0.19 0.17 0.13 0.19 0.21 0.25 0.23
0.00 0.00 0.00 0.00 0.02 0.13 0.53 0.65 0.86 0.35 0.16 0.29 0.47 0.52 0.47 0.39 0.39 0.41 0.40 0.32 0.30 0.29 0.25 0.27 0.37 0.45 0.54 0.51 0.36 0.28 0.20 0.19 0.17 0.15 0.13 0.09 0.04 0.03 0.03 0.05 0.11 0.08 0.11
0.01 0.01 0.00 0.00 0.01 0.08 0.30 0.32 0.47 0.53 0.56 0.85 0.84 0.80 0.66 0.62 0.87 1.01 0.86 0.75 0.73 0.68 0.77 0.64 0.55 0.66 0.74 0.61 0.47 0.30 0.22 0.18 0.13 0.07 0.02 0.02 0.01 0.03 0.04 0.05 0.02 0.00 0.01
0.00 0.00 0.01 0.02 0.03 0.06 0.22 0.56 0.97 0.79 0.72 0.81 0.97 0.89 0.78 0.64 0.75 0.70 0.76 0.71 0.63 0.68 0.66 0.70 0.57 0.52 0.48 0.35 0.27 0.20 0.13 0.07 0.03 0.02 0.02 0.03 0.02 0.03 0.07 0.06 0.03 0.04 0.01
0.03 0.04 0.05 0.14 0.19 0.29 0.61 0.84 0.99 0.90 0.89 0.92 0.79 0.66 0.55 0.71 0.67 0.69 0.53 0.61 0.53 0.41 0.37 0.33 0.30 0.21 0.12 0.05 0.03 0.04 0.04 0.03 0.04 0.02 0.01 0.01 0.03 0.07 0.08 0.09 0.05 0.07 0.07
0.19 0.07 0.22 0.66 0.79 0.59 0.55 0.45 0.50 0.47 0.26 0.37 0.34 0.37 0.26 0.32 0.42 0.27 0.25 0.23 0.19 0.13 0.07 0.03 0.02 0.01 0.01 0.03 0.05 0.05 0.05 0.04 0.03 0.03 0.02 0.02 0.06 0.08 0.07 0.08 0.07 0.10 0.11
0.07 0.01 0.07 0.12 0.09 0.04 0.01 0.03 0.05 0.05 0.00 0.00 0.00 0.00 0.00 0.00 0.01 0.00 0.00 0.00 0.00 0.00 0.00 0.00 0.00 0.00 0.00 0.01 0.06 0.05 0.05 0.08 0.08 0.04 0.06 0.08 0.08 0.08 0.06 0.06 0.09 0.09 0.08
0.00 0.00 0.00 0.00 0.00 0.00 0.00 0.00 0.00 0.00 0.00 0.00 0.00 0.00 0.00 0.00 0.00 0.00 0.00 0.00 0.00 0.01 0.02 0.02 0.03 0.03 0.04 0.05 0.05 0.08 0.09 0.11 0.10 0.07 0.09 0.12 0.12 0.11 0.09 0.10 0.10 0.09 0.10
0.04 0.07 0.09 0.09 0.05 0.01 0.01 0.01 0.01 0.02 0.03 0.02 0.02 0.01 0.01 0.01 0.01 0.01 0.02 0.01 0.01 0.03 0.02 0.01 0.03 0.05 0.06 0.07 0.18 0.20 0.18 0.20 0.26 0.35 0.22 0.17 0.11 0.10 0.11 0.10 0.11 0.19 0.25
0.00 0.01 0.06 0.12 0.19 0.19 0.17 0.12 0.08 0.07 0.05 0.05 0.03 0.04 0.02 0.02 0.03 0.04 0.04 0.07 0.05 0.06 0.06 0.06 0.05 0.04 0.07 0.11 0.18 0.20 0.23 0.27 0.36 0.41 0.26 0.16 0.13 0.12 0.13 0.17 0.22 0.27 0.34

GFSMW_prec_precacc_153.txt.gz
Total_Precipitation_Accumulation
1.00 1.21 0.85 0.73 0.83 0.72 0.74 0.52 0.42 0.36 0.40 0.58 0.55 0.74 0.91 1.22 1.39 1.14 0.98 0.97 0.90 0.81 0.73 0.54 0.43 0.35 0.25 0.22 0.22 0.25 0.33 0.40 0.46 0.46 0.26 0.18 0.15 0.16 0.17 0.18 0.17 0.16 0.12
0.88 1.26 1.66 0.85 0.79 1.39 1.59 1.18 0.84 0.79 0.55 0.66 0.65 0.57 0.83 1.05 1.27 1.46 1.27 1.34 1.30 1.13 0.85 0.71 0.69 0.58 0.54 0.45 0.50 0.49 0.48 0.46 0.60 0.57 0.37 0.21 0.16 0.18 0.11 0.09 0.11 0.12 0.14
0.58 1.01 1.79 1.34 1.19 1.62 1.68 1.43 1.33 1.16 1.25 1.15 1.45 1.28 1.32 1.26 1.60 1.82 1.62 1.55 1.48 1.43 1.56 1.86 1.55 1.01 1.02 1.15 1.22 1.28 1.27 1.06 0.82 0.73 0.72 0.43 0.22 0.09 0.08 0.07 0.08 0.09 0.10
0.37 0.57 0.90 1.25 1.40 0.91 0.84 1.33 2.38 2.65 1.70 1.71 2.50 2.94 2.86 2.76 2.54 2.86 2.50 1.92 1.69 1.69 1.86 2.15 2.74 3.21 2.75 1.93 1.63 1.54 1.38 1.43 1.29 1.25 0.98 0.83 0.59 0.39 0.16 0.06 0.06 0.06 0.05
0.33 0.34 0.53 0.73 0.60 0.49 0.54 0.72 1.26 2.07 2.13 2.05 2.51 2.92 2.59 2.11 1.95 2.06 2.69 2.69 2.44 2.02 1.86 1.89 1.96 1.98 2.17 2.63 2.40 1.95 1.84 1.71 1.41 1.16 0.94 0.84 0.80 0.81 0.70 0.37 0.19 0.14 0.09
0.16 0.31 0.26 0.34 0.38 0.42 0.51 0.50 0.69 1.08 1.90 2.06 2.07 2.41 2.64 2.81 2.41 1.99 2.27 2.19 1.82 1.80 1.70 1.52 1.38 1.41 1.46 1.56 1.92 1.95 1.68 1.57 1.61 1.53 1.36 1.14 1.08 0.92 1.03 0.94 0.59 0.51 0.37
0.30 0.36 0.58 0.54 0.58 0.58 0.38 0.40 0.52 0.59 0.94 1.35 1.70 1.85 1.56 1.82 1.91 1.80 1.79 1.96 1.93 1.72 1.65 1.53 1.53 1.41 1.42 1.46 1.55 1.71 1.64 1.46 1.31 1.26 1.29 1.40 1.42 1.39 1.42 1.36 1.00 0.68 0.44
0.55 0.51 0.80 0.98 0.99 0.70 0.62 0.39 0.49 0.33 0.26 0.34 0.63 1.04 1.34 1.71 1.71 1.58 1.52 1.47 1.41 1.55 1.87 1.77 1.74 1.78 1.73 1.71 1.72 1.76 1.81 1.71 1.62 1.63 1.56 1.50 1.46 1.59 1.75 1.86 1.86 1.72 1.12
0.91 0.79 0.84 1.13 1.00 0.74 0.71 0.67 0.52 0.48 0.20 0.12 0.19 0.23 0.32 0.44 0.65 0.78 0.82 0.97 1.23 1.18 1.31 1.42 1.33 1.32 1.32 1.29 1.37 1.38 1.37 1.49 1.53 1.42 1.35 1.29 1.17 1.28 1.40 1.57 1.88 2.40 2.23
1.10 0.94 0.85 0.78 0.62 0.54 0.43 0.43 0.32 0.13 0.09 0.09 0.11 0.04 0.07 0.10 0.14 0.17 0.18 0.23 0.40 0.55 0.68 0.79 0.81 0.88 0.93 1.07 1.17 1.21 1.29 1.39 1.40 1.42 1.46 1.47 1.41 1.38 1.31 1.28 1.40 1.59 1.96
0.82 0.69 0.56 0.34 0.17 0.11 0.02 0.02 0.02 0.04 0.06 0.05 0.03 0.02 0.04 0.06 0.07 0.07 0.05 0.05 0.07 0.08 0.10 0.12 0.15 0.17 0.24 0.42 0.63 0.79 0.97 1.17 1.32 1.59 1.84 1.95 2.06 2.26 2.24 2.29 2.45 2.58 2.69
0.36 0.28 0.14 0.04 0.01 0.00 0.00 0.00 0.05 0.07 0.03 0.02 0.02 0.02 0.03 0.04 0.05 0.05 0.07 0.07 0.07 0.05 0.05 0.06 0.06 0.06 0.10 0.13 0.15 0.17 0.22 0.30 0.40 0.55 0.71 0.79 0.95 1.21 1.42 1.66 1.82 2.16 2.62
0.01 0.02 0.00 0.00 0.01 0.02 0.07 0.12 0.10 0.03 0.04 0.04 0.03 0.03 0.04 0.05 0.06 0.06 0.06 0.06 0.06 0.06 0.05 0.04 0.05 0.06 0.05 0.06 0.08 0.11 0.14 0.20 0.29 0.36 0.41 0.44 0.47 0.54 0.58 0.69 0.87 1.03 1.18
0.00 0.00 0.01 0.00 0.06 0.15 0.25 0.15 0.12 0.10 0.10 0.09 0.07 0.08 0.07 0.08 0.07 0.07 0.06 0.05 0.05 0.05 0.04 0.05 0.05 0.07 0.08 0.10 0.11 0.11 0.11 0.10 0.10 0.13 0.15 0.22 0.31 0.43 0.62 0.86 0.96 0.92 0.80
0.00 0.00 0.01 0.01 0.05 0.19 0.18 0.17 0.20 0.19 0.16 0.15 0.12 0.07 0.06 0.08 0.07 0.06 0.07 0.05 0.05 0.04 0.04 0.08 0.14 0.16 0.17 0.20 0.19 0.19 0.20 0.21 0.25 0.26 0.31 0.37 0.49 0.57 0.53 0.45 0.36 0.37 0.41
0.00 0.00 0.00 0.00 0.02 0.08 0.15 0.15 0.19 0.17 0.10 0.10 0.09 0.07 0.05 0.06 0.08 0.09 0.09 0.09 0.09 0.10 0.10 0.13 0.14 0.17 0.21 0.37 0.31 0.25 0.26 0.29 0.31 0.34 0.37 0.41 0.50 0.40 0.39 0.30 0.26 0.22 0.26
0.00 0.00 0.00 0.00 0.02 0.11 0.19 0.61 0.74 0.37 0.09 0.21 0.16 0.12 0.08 0.09 0.12 0.14 0.16 0.14 0.12 0.15 0.24 0.25 0.20 0.16 0.15 0.29 0.24 0.22 0.20 0.23 0.25 0.25 0.23 0.20 0.19 0.17 0.13 0.19 0.21 0.25 0.23
0.00 0.00 0.00 0.00 0.02 0.13 0.53 0.65 0.86 0.35 0.16 0.29 0.47 0.52 0.47 0.39 0.39 0.41 0.40 0.32 0.30 0.29 0.25 0.27 0.37 0.45 0.54 0.51 0.36 0.28 0.20 0.19 0.17 0.15 0.13 0.09 0.04 0.03 0.03 0.05 0.11 0.08 0.11
0.01 0.01 0.00 0.00 0.01 0.08 0.30 0.32 0.47 0.53 0.56 0.85 0.84 0.80 0.66 0.62 0.87 1.01 0.86 0.75 0.73 0.68 0.77 0.64 0.55 0.66 0.74 0.61 0.47 0.30 0.22 0.18 0.13 0.07 0.02 0.02 0.01 0.03 0.04 0.05 0.02 0.00 0.01
0.00 0.00 0.01 0.02 0.03 0.06 0.22 0.56 0.97 0.79 0.72 0.81 0.97 0.89 0.78 0.64 0.75 0.70 0.76 0.71 0.63 0.68 0.66 0.70 0.57 0.52 0.48 0.35 0.27 0.20 0.13 0.07 0.03 0.02 0.02 0.03 0.02 0.03 0.07 0.06 0.03 0.04 0.01
0.03 0.04 0.05 0.14 0.19 0.29 0.61 0.84 0.99 0.90 0.89 0.92 0.79 0.66 0.55 0.71 0.67 0.69 0.53 0.61 0.53 0.41 0.37 0.33 0.30 0.21 0.12 0.05 0.03 0.04 0.04 0.03 0.04 0.02 0.01 0.01 0.03 0.07 0.08 0.09 0.05 0.07 0.07
0.19 0.07 0.22 0.66 0.79 0.59 0.55 0.45 0.50 0.47 0.26 0.37 0.34 0.37 0.26 0.32 0.42 0.27 0.25 0.23 0.19 0.13 0.07 0.03 0.02 0.01 0.01 0.03 0.05 0.05 0.05 0.04 0.03 0.03 0.02 0.02 0.06 0.09 0.08 0.08 0.08 0.10 0.12
0.07 0.01 0.07 0.12 0.09 0.04 0.01 0.03 0.05 0.05 0.00 0.00 0.00 0.00 0.00 0.00 0.01 0.00 0.00 0.00 0.00 0.00 0.00 0.00 0.00 0.00 0.00 0.01 0.06 0.05 0.05 0.08 0.08 0.04 0.06 0.08 0.08 0.09 0.07 0.06 0.09 0.09 0.08
0.00 0.00 0.00 0.00 0.00 0.00 0.00 0.00 0.00 0.00 0.00 0.00 0.00 0.00 0.00 0.00 0.00 0.00 0.00 0.00 0.00 0.01 0.02 0.02 0.03 0.03 0.04 0.05 0.05 0.08 0.09 0.11 0.10 0.07 0.09 0.12 0.12 0.11 0.09 0.10 0.11 0.09 0.10
0.04 0.07 0.09 0.09 0.05 0.01 0.01 0.01 0.01 0.02 0.03 0.02 0.02 0.01 0.01 0.01 0.01 0.01 0.02 0.01 0.01 0.03 0.02 0.01 0.03 0.05 0.06 0.07 0.18 0.20 0.19 0.20 0.27 0.35 0.22 0.17 0.12 0.10 0.11 0.10 0.11 0.19 0.25
0.00 0.01 0.06 0.12 0.19 0.19 0.17 0.12 0.08 0.07 0.05 0.05 0.03 0.04 0.02 0.02 0.03 0.04 0.04 0.07 0.05 0.06 0.06 0.06 0.05 0.04 0.07 0.11 0.18 0.20 0.23 0.27 0.37 0.42 0.27 0.16 0.13 0.12 0.13 0.17 0.22 0.28 0.35